Regional Weather Roundup
Issued by NWS

Home | Current Version | Previous Version | Text Only | Print | Product List | Glossary On
Versions: 1 2 3 4 5 6 7 8 9 10 11 12 13 14 15 16 17 18 19 20 21 22 23 24 25 26 27 28 29 30 31 32 33 34 35 36 37 38 39 40 41 42 43 44 45 46 47 48 49 50
000
ASUS44 KFWD 212010
RWRTX
NORTH TEXAS HOURLY WEATHER ROUNDUP
NATIONAL WEATHER SERVICE FORT WORTH TX
300 PM CDT THU SEP 21 2017

NOTE: "FAIR" INDICATES FEW OR NO CLOUDS BELOW 12,000 FEET WITH NO
SIGNIFICANT WEATHER AND/OR OBSTRUCTIONS TO VISIBILITY.

TXZ118-119-212100-
DALLAS/FORT WORTH METROPLEX

CITY           SKY/WX    TMP DP  RH WIND       PRES   REMARKS
DFW AIRPORT    MOSUNNY   95  70  44 S12G21    29.88F HX 101
DALLAS LOVE    MOSUNNY   96  69  41 S15       29.89F HX 102
FTW MEACHAM    MOSUNNY   95  73  48 SE13G20   29.88F HX 104
DAL-EXECUTIVE  SUNNY     94  68  42 SE15      29.89F HX  98
FTW-ALLIANCE   MOSUNNY   94  71  47 SE10G21   29.89F HX 101
FTW-NAS-JRB    MOSUNNY   93  69  45 S10G21    29.89F HX  98
FTW-SPINKS     MOSUNNY   97  66  36 S13G21    29.91F HX 100
ARLINGTON      SUNNY     94  71  47 SE14G23   29.89F HX 101
GRAND PRAIRIE  SUNNY     93  64  38 SE9G18    29.90F HX  95
ADDISON        MOSUNNY   93  66  40 S10G21    29.91F HX  96
MESQUITE       PTSUNNY   93  66  40 SE14      29.91F HX  96
LANCASTER      MOSUNNY   94  68  43 SE9       29.90F HX  98
$$

TXZ091>094-102>105-117-120-121-131>134-212100-
NORTH CENTRAL TEXAS

CITY           SKY/WX    TMP DP  RH WIND       PRES   REMARKS
SHRMAN/DENISON SUNNY     92  71  49 SE16      29.92F HX  98
GAINESVILLE    SUNNY     91  71  53 SE17G23   29.91F HX  97
BOWIE          SUNNY     91  73  55 SE10G17   29.89F HX  99
BRIDGEPORT     SUNNY     92  70  48 S12G17    29.90F HX  98
DECATUR        SUNNY     91  70  49 SE16      29.89F HX  97
DENTON         SUNNY     93  73  52 S14       29.89F HX 102
MCKINNEY       SUNNY     92  71  50 SE16G23   29.90F HX  98
BONHAM         MOSUNNY   92  70  49 S15G22    29.92F HX  97
GREENVILLE     SUNNY     95  68  41 SE12      29.93F HX  99
ROCKWALL       PTSUNNY   92  71  51 S10       29.91F HX  98
TERRELL        MOSUNNY   92  68  45 SE10G21   29.92F HX  96
WAXAHACHIE     MOSUNNY   94  68  42 SE12G17   29.91F HX  99
CLEBURNE       MOSUNNY   93  70  46 S14G21    29.91F HX  99
GRANBURY       MOSUNNY   93  69  45 SE12G17   29.90F HX  97
$$

TXZ083>090-098>101-113>116-127>130-139>142-154-155-212100-
WESTERN NORTH TEXAS

CITY           SKY/WX    TMP DP  RH WIND       PRES   REMARKS
WICHITA FALLS  MOSUNNY   95  70  44 S23G29    29.84F HX 101
WF-KICKAPOO    SUNNY     95  72  46 SE16G24   29.87F HX 103
VERNON         SUNNY     99  57  24 S18G28    29.82F HX  98
ABILENE        SUNNY     96  66  37 S15       29.89F HX  99
ABILENE-DYESS  MOSUNNY   96  67  39 SE20G25   29.86F HX 100
GRAHAM         SUNNY     98  67  36 SE10G22   29.85F HX 102
BRECKENRIDGE   MOSUNNY   96  63  32 S15G21    29.87F HX  97
CISCO          MOSUNNY   95  66  38 SE17G26   29.91F HX  98
EASTLAND       PTSUNNY   95  67  40 SE18      29.89F HX  99
RANGER         SUNNY     94  67  40 S17       29.90F HX  97
MINERAL WELLS  MOSUNNY   95  70  44 S16G23    29.87F HX 101
STEPHENVILLE   SUNNY     95  66  38 S7        29.93F HX  98
COMANCHE       MOSUNNY   97  67  38 S5G17     29.90F HX 101
BROWNWOOD      LGT RAIN  95  66  38 SE10G18   29.89F HX  98
COLEMAN        SUNNY     95  63  35 S10G21    29.90F HX  96
$$

TXZ143>147-156>162-174-175-212100-
CENTRAL TEXAS

CITY           SKY/WX    TMP DP  RH WIND       PRES   REMARKS
WACO           MOSUNNY   96  68  39 S10       29.89F HX 101
WACO-TSTC      MOSUNNY   97  66  36 S13       29.89F HX 100
WACO-MCGREGOR  MOSUNNY   95  69  42 S12G20    29.89F HX 100
HILLSBORO      MOSUNNY   94  70  44 S13       29.90F HX 100
CORSICANA      MOSUNNY   94  68  42 SE8G20    29.92F HX  98
MEXIA          MOSUNNY   92  69  46 S8G17     29.91F HX  97
CAMERON        MOSUNNY   94  71  47 S9        29.90F HX 101
TEMPLE         PTSUNNY   95  71  45 SE13      29.90F HX 102
KILLEEN        PTSUNNY   93  67  42 SE12      29.89F HX  97
FORT HOOD      MOSUNNY   93  68  43 SE10      29.87F HX  97
GATESVILLE     MOSUNNY   93  66  40 S9        29.91F HX  96
HAMILTON       MOSUNNY   95  66  37 SE10G17   29.92F HX  98
LAMPASAS       MOSUNNY   96  71  44 S8G17     29.89F HX 103
$$

TXZ095>097-106>112-122>126-135>138-148>153-164>167-212100-
EAST TEXAS

CITY           SKY/WX    TMP DP  RH WIND       PRES   REMARKS
PARIS          MOSUNNY   92  73  53 S10       29.94F HX 100
SULPHUR SPRNGS PTSUNNY   92  70  48 SE9       29.95F HX  97
MOUNT PLEASANT MOSUNNY   90  71  53 SE7       29.95F HX  96
GILMER         PTSUNNY   90  70  50 SE6       29.94F HX  95
MINEOLA        SUNNY     93  72  49 E12G20    29.93F HX 100
TYLER          MOSUNNY   92  69  47 S9        29.93F HX  97
LONGVIEW       MOSUNNY   94  71  47 VRB7      29.93F HX 101
MARSHALL       MOSUNNY   91  70  51 S9G16     29.97F HX  96
ATHENS         MOSUNNY   91  68  46 E7        29.91F HX  95
PALESTINE      MOSUNNY   92  71  50 S6        29.94F HX  99
JACKSONVILLE   MOSUNNY   90  72  54 S7        29.96F HX  97
HENDERSON      MOSUNNY   92  70  48 SE9       29.95F HX  98
CENTER         CLOUDY    91  76  62 E8        29.97F HX 103
NACOGDOCHES    PTSUNNY   90  75  61 E7        29.94F HX 100
LUFKIN         TSTM      74  72  93 SE12      29.99R VSB 1
$$

SUPPLEMENTAL OBSERVATIONS (NWS FORT WORTH AREA)

CITY           SKY/WX    TMP DP  RH WIND       PRES   REMARKS
CADDO GRASSLND   N/A     91  70  49 S9          N/A  HX  97
PAT MAYSE LAKE   N/A     88  73  62 SE9         N/A  HX  96
GREENVILLE       N/A     91  68  46 S8G17       N/A  HX  95
CEDAR HILL       N/A     95  66  38 S8G17       N/A  HX  98
LBJ GRASSLAND    N/A     93  70  46 SE12        N/A  HX  99
POSSUM KINGDOM   N/A     97  66  36 SE10G20     N/A  HX 100
GRANBURY         N/A     93  70  46 SE14        N/A  HX  99
MCGREGOR         N/A     97  66  36 S12         N/A  HX 100
TEMPLE           N/A     95  70  43 S8G17       N/A  HX 101
$$

SUPPLEMENTAL OBSERVATIONS (NWS NORMAN AREA)

CITY           SKY/WX    TMP DP  RH WIND       PRES   REMARKS
ODELL            N/A     98  65  34 S17       29.83F HX 101
CROWELL          N/A    102  63  27 S21       29.82F HX 104
KNOX CITY        N/A    100  57  23 S20G26    29.83F HX  99
SEYMOUR          N/A     97  63  32 SE16G25   29.83F HX  98
MILLERS CREEK    N/A     97  64  34 S15         N/A  HX  99
$$

SUPPLEMENTAL OBSERVATIONS (NWS SAN ANGELO AREA)

CITY           SKY/WX    TMP DP  RH WIND       PRES   REMARKS
WEINERT          N/A     99  65  33 S16       29.85F HX 101
HASKELL          N/A     97  57  26 S15G22    29.85F HX  96
THROCKMORTON     N/A     99  68  37 S13G18    29.87F HX 104
STAMFORD         N/A     98  65  34 S12       29.86F HX 100
CLYDE            N/A     94  66  39 S10       29.92F HX  97
HAMBY            N/A     97  64  34 S15G26      N/A  HX  99
IVIE RESERVOIR   N/A     95  64  36 SE14G25     N/A  HX  97
COLORADO BEND    N/A     93  61  33 SE12G20     N/A  HX  93
$$

SUPPLEMENTAL OBSERVATIONS (NWS SHREVEPORT AREA)

CITY           SKY/WX    TMP DP  RH WIND       PRES   REMARKS
CLARKSVILLE      N/A     91  70  49 S9          N/A  HX  97
TEXARKANA        N/A     93  70  46 S3          N/A  HX  99
LINDEN           N/A     91  68  46 SE3         N/A  HX  95
GILMER           N/A     93  70  46 SE5         N/A  HX  99
HENDERSON        N/A     91  70  49 SE6G14      N/A  HX  97
LUFKIN           N/A     75  72  88 MISG        N/A
N SABINE NF      N/A     93  75  55 MISG        N/A  HX 104
S SABINE NF      N/A     91  73  55 E5          N/A  HX 100
$$

SUPPLEMENTAL OBSERVATIONS ARE A COLLECTION OF AUTOMATED INSTRUMENTS
THAT ARE MAINTAINED BY A VARIETY OF FEDERAL AND STATE AGENCIES.
CERTAIN ELEMENTS...SUCH AS HUMIDITY VALUES AND SUSTAINED WIND
SPEEDS...MAY BE APPROXIMATED.





USA.gov is the U.S. government's official web portal to all federal, state and local government web resources and services.